• In Romania
  • List of Countries
  • For 7 days
  • Water Temperature
  • Satellite Maps
  • Weather Map
  • Weather Widgets
  • user-avatar
    Login

    Hourly Weather Korobino

    Today, 25 September, Tuesday

    Time Temperature Precipitation Wind Pressure Humidity
    00:00 +5°C° 2 mm 6 mps 728 mmHg 94%
    01:00 +5°C° 2 mm 6 mps 728 mmHg 94%
    02:00 +5°C° 2 mm 6 mps 728 mmHg 93%
    03:00 +5°C° 1.1 mm 7 mps 729 mmHg 92%
    04:00 +5°C° 1.1 mm 7 mps 729 mmHg 91%
    05:00 +5°C° 1.1 mm 7 mps 730 mmHg 90%
    06:00 +5°C° 0.5 mm 7 mps 731 mmHg 89%
    07:00 +5°C° 0.5 mm 7 mps 731 mmHg 88%
    08:00 +5°C° 0.5 mm 7 mps 732 mmHg 86%
    09:00 +5°C° 0.2 mm 7 mps 733 mmHg 84%
    10:00 +6°C° 0.2 mm 7 mps 734 mmHg 81%
    11:00 +6°C° 0.2 mm 7 mps 735 mmHg 78%
    12:00 +6°C° 0.1 mm 7 mps 736 mmHg 75%
    13:00 +6°C° 0.1 mm 7 mps 737 mmHg 73%
    14:00 +8°C° 0.1 mm 7 mps 738 mmHg 71%
    15:00 +7°C° 0 mm 6 mps 738 mmHg 71%
    16:00 +7°C° 0 mm 5 mps 739 mmHg 71%
    17:00 +7°C° 0 mm 5 mps 740 mmHg 72%
    18:00 +6°C° 0 mm 5 mps 740 mmHg 74%
    19:00 +5°C° 0 mm 5 mps 741 mmHg 76%
    20:00 +3°C° 0 mm 5 mps 742 mmHg 79%
    21:00 +4°C° 0 mm 4 mps 743 mmHg 79%
    22:00 +4°C° 0 mm 4 mps 743 mmHg 80%
    23:00 +3°C° 0 mm 4 mps 744 mmHg 80%

    Tomorrow, 26 September, Wednesday

    Time Temperature Precipitation Wind Pressure Humidity
    00:00 +3°C° 0 mm 4 mps 745 mmHg 80%
    01:00 +3°C° 0 mm 4 mps 745 mmHg 79%
    02:00 +1°C° 0 mm 4 mps 746 mmHg 79%
    03:00 +1°C° 0 mm 4 mps 746 mmHg 78%
    04:00 +1°C° 0 mm 4 mps 747 mmHg 78%
    05:00 0°C° 0 mm 4 mps 747 mmHg 77%
    06:00 +1°C° 0 mm 4 mps 748 mmHg 75%
    07:00 +3°C° 0 mm 4 mps 748 mmHg 73%
    08:00 +4°C° 0 mm 4 mps 748 mmHg 71%
    09:00 +5°C° 0 mm 4 mps 748 mmHg 68%
    10:00 +7°C° 0 mm 4 mps 748 mmHg 65%
    11:00 +10°C° 0 mm 4 mps 748 mmHg 63%
    12:00 +10°C° 0 mm 4 mps 748 mmHg 60%
    13:00 +11°C° 0 mm 4 mps 747 mmHg 57%
    14:00 +10°C° 0 mm 5 mps 747 mmHg 54%
    15:00 +10°C° 0 mm 4 mps 746 mmHg 57%
    16:00 +8°C° 0 mm 4 mps 746 mmHg 60%
    17:00 +8°C° 0 mm 4 mps 745 mmHg 63%
    18:00 +7°C° 0.1 mm 5 mps 744 mmHg 66%
    19:00 +7°C° 0.1 mm 5 mps 743 mmHg 69%
    20:00 +7°C° 0.1 mm 6 mps 742 mmHg 72%
    21:00 +5°C° 1.1 mm 7 mps 741 mmHg 77%
    22:00 +5°C° 1.1 mm 7 mps 740 mmHg 82%
    23:00 +5°C° 1.1 mm 8 mps 738 mmHg 87%

    Day after tomorrow, 27 September, Thursday

    Time Temperature Precipitation Wind Pressure Humidity
    00:00 +5°C° 1.2 mm 8 mps 737 mmHg 88%
    01:00 +5°C° 1.2 mm 8 mps 736 mmHg 88%
    02:00 +5°C° 1.2 mm 8 mps 735 mmHg 89%
    03:00 +6°C° 1.3 mm 7 mps 735 mmHg 89%
    04:00 +7°C° 1.3 mm 6 mps 734 mmHg 90%
    05:00 +8°C° 1.3 mm 6 mps 734 mmHg 90%
    06:00 +8°C° 0.1 mm 6 mps 734 mmHg 88%
    07:00 +8°C° 0.1 mm 5 mps 734 mmHg 85%
    08:00 +8°C° 0.1 mm 5 mps 735 mmHg 82%
    09:00 +8°C° 0.1 mm 5 mps 735 mmHg 77%
    10:00 +9°C° 0.1 mm 6 mps 735 mmHg 71%
    11:00 +9°C° 0.1 mm 6 mps 735 mmHg 65%
    12:00 +9°C° 0.2 mm 6 mps 735 mmHg 65%
    13:00 +9°C° 0.2 mm 7 mps 736 mmHg 65%
    14:00 +9°C° 0.2 mm 7 mps 736 mmHg 64%
    15:00 +8°C° 0 mm 6 mps 737 mmHg 67%
    16:00 +8°C° 0 mm 5 mps 737 mmHg 70%
    17:00 +7°C° 0 mm 4 mps 738 mmHg 72%
    18:00 +6°C° 0 mm 4 mps 738 mmHg 73%
    19:00 +6°C° 0 mm 4 mps 739 mmHg 74%
    20:00 +5°C° 0 mm 4 mps 739 mmHg 76%
    21:00 +5°C° 0 mm 4 mps 739 mmHg 76%
    22:00 +5°C° 0 mm 4 mps 740 mmHg 77%
    23:00 +5°C° 0 mm 4 mps 740 mmHg 78%

    28 September, Friday

    Time Temperature Precipitation Wind Pressure Humidity
    00:00 +4°C° 0 mm 3 mps 740 mmHg 80%
    01:00 +4°C° 0 mm 3 mps 740 mmHg 83%
    02:00 +3°C° 0 mm 3 mps 740 mmHg 85%
    03:00 +4°C° 0 mm 3 mps 739 mmHg 83%
    04:00 +4°C° 0 mm 3 mps 738 mmHg 81%
    05:00 +5°C° 0 mm 4 mps 738 mmHg 79%
    06:00 +6°C° 0.6 mm 5 mps 736 mmHg 82%
    07:00 +7°C° 0.6 mm 6 mps 735 mmHg 84%
    08:00 +8°C° 0.6 mm 7 mps 733 mmHg 87%
    09:00 +9°C° 0.7 mm 7 mps 732 mmHg 87%
    10:00 +10°C° 0.7 mm 8 mps 732 mmHg 86%
    11:00 +12°C° 0.7 mm 8 mps 731 mmHg 86%
    12:00 +11°C° 1.1 mm 8 mps 731 mmHg 85%
    13:00 +11°C° 1.1 mm 7 mps 731 mmHg 84%
    14:00 +11°C° 1.1 mm 7 mps 731 mmHg 83%
    15:00 +10°C° 0.3 mm 6 mps 732 mmHg 83%
    16:00 +9°C° 0.3 mm 6 mps 733 mmHg 84%
    17:00 +7°C° 0.3 mm 6 mps 734 mmHg 84%
    18:00 +6°C° 0.1 mm 5 mps 735 mmHg 84%
    19:00 +5°C° 0.1 mm 5 mps 737 mmHg 85%
    20:00 +4°C° 0.1 mm 4 mps 738 mmHg 85%
    21:00 +3°C° 0 mm 4 mps 739 mmHg 88%
    22:00 +2°C° 0 mm 3 mps 740 mmHg 90%
    23:00 +2°C° 0 mm 2 mps 741 mmHg 92%

    29 September, Saturday

    Time Temperature Precipitation Wind Pressure Humidity
    00:00 +2°C° 0 mm 2 mps 741 mmHg 93%
    01:00 +2°C° 0 mm 2 mps 742 mmHg 93%
    02:00 +1°C° 0 mm 2 mps 743 mmHg 94%
    03:00 +1°C° 0 mm 2 mps 743 mmHg 94%
    04:00 +1°C° 0 mm 2 mps 743 mmHg 95%
    05:00 +2°C° 0 mm 1 mps 743 mmHg 96%
    06:00 +3°C° 0.1 mm 1 mps 744 mmHg 93%
    07:00 +4°C° 0.1 mm 1 mps 744 mmHg 90%
    08:00 +5°C° 0.1 mm 1 mps 745 mmHg 87%
    09:00 +5°C° 0.4 mm 1 mps 745 mmHg 85%
    10:00 +6°C° 0.4 mm 1 mps 746 mmHg 83%
    11:00 +6°C° 0.4 mm 1 mps 746 mmHg 80%
    12:00 +6°C° 0.1 mm 1 mps 747 mmHg 77%
    13:00 +7°C° 0.1 mm 1 mps 747 mmHg 74%
    14:00 +6°C° 0.1 mm 2 mps 747 mmHg 70%
    15:00 +7°C° 0 mm 1 mps 747 mmHg 73%
    16:00 +6°C° 0 mm 1 mps 748 mmHg 76%
    17:00 +5°C° 0 mm 1 mps 748 mmHg 78%
    18:00 +4°C° 0 mm 1 mps 749 mmHg 80%
    19:00 +3°C° 0 mm 1 mps 749 mmHg 81%
    20:00 +2°C° 0 mm 1 mps 750 mmHg 83%
    21:00 +2°C° 0 mm 1 mps 750 mmHg 83%
    22:00 +1°C° 0 mm 1 mps 751 mmHg 83%
    23:00 +1°C° 0 mm 1 mps 751 mmHg 84%

    30 September, Sunday

    Time Temperature Precipitation Wind Pressure Humidity
    00:00 +1°C° 0 mm 1 mps 751 mmHg 84%
    01:00 +1°C° 0 mm 1 mps 752 mmHg 85%
    02:00 0°C° 0 mm 1 mps 752 mmHg 85%
    03:00 0°C° 0 mm 1 mps 752 mmHg 86%
    04:00 0°C° 0 mm 1 mps 752 mmHg 86%
    05:00 0°C° 0 mm 1 mps 752 mmHg 87%
    06:00 -1°C° 0 mm 2 mps 752 mmHg 84%
    07:00 +2°C° 0 mm 2 mps 752 mmHg 80%
    08:00 +3°C° 0 mm 2 mps 752 mmHg 77%
    09:00 +3°C° 0 mm 3 mps 752 mmHg 71%
    10:00 +5°C° 0 mm 3 mps 752 mmHg 66%
    11:00 +8°C° 0 mm 3 mps 752 mmHg 60%
    12:00 +8°C° 0 mm 3 mps 752 mmHg 59%
    13:00 +7°C° 0 mm 4 mps 751 mmHg 58%
    14:00 +8°C° 0 mm 4 mps 751 mmHg 56%
    15:00 +8°C° 0 mm 3 mps 750 mmHg 62%
    16:00 +7°C° 0 mm 3 mps 750 mmHg 68%
    17:00 +5°C° 0 mm 2 mps 750 mmHg 75%
    18:00 +4°C° 0 mm 3 mps 750 mmHg 75%
    19:00 +4°C° 0 mm 3 mps 749 mmHg 76%
    20:00 +3°C° 0 mm 3 mps 749 mmHg 77%
    21:00 +3°C° 0 mm 3 mps 749 mmHg 76%
    22:00 +4°C° 0 mm 3 mps 749 mmHg 76%
    23:00 +4°C° 0 mm 4 mps 748 mmHg 75%
    Show more